[[{"header":{"parameterUnit":"m.s-1","parameterCategory":1,"la1":30.2991,"la2":30.254,"lo1":-89.0895,"lo2":-89.0444,"dy":0.0017,"dx":0.0017,"nx":28,"ny":28,"refTime":"2025-08-14T21:00:00:Z","depth":0,"parameterNumber":2,"parameterNumberName":"U-component_of_WINDS"},"data":[0,0,0,0,0,0,0,0,0,0,0,0,0,0,0,0,0,0,0,0,0,0,0,0,0,0,0,0,0,0,0,0,0,0,0,0,0,0,0,0,0,0,0,0,0,0,0,0,0,0,0,0,0,0,0,0,0,0,2.8599,2.8601,0,2.8741,2.8743,2.8744,2.8727,2.8724,2.8722,2.872,2.8863,2.8868,2.8874,0,0,0,0,0,0,0,0,0,0,0,0,0,2.831,2.8315,2.8599,2.8601,2.8603,2.8741,2.8743,2.8745,2.8727,2.8724,2.8721,2.8719,2.8861,2.8868,2.8875,0,0,0,0,0,0,0,0,0,0,0,0,0,2.8442,2.8317,2.8599,2.861,2.8613,2.874,2.8743,2.8745,2.8728,2.8724,2.8721,2.8718,2.8858,2.8867,2.8876,2.9,0,0,2.8903,2.8907,0,0,0,0,0,0,0,0,2.8435,2.8453,2.8607,2.861,2.8613,2.8713,2.8693,2.883,2.8729,2.8684,2.872,2.8716,2.8815,2.8828,2.8862,2.9006,2.9012,2.8904,2.8909,2.8913,2.8916,0,0,0,0,0,0,0,2.8425,2.8446,2.8655,2.8609,2.8613,2.8608,2.8623,2.8719,2.8767,2.8688,2.8687,2.8704,2.8816,2.8853,2.8865,2.9015,2.8904,2.8911,2.8917,2.892,2.9268,2.9272,0,0,0,0,0,0,2.8414,2.8439,2.8651,2.8659,2.8514,2.8616,2.8633,2.8684,2.8766,2.8775,2.8707,2.8703,2.884,2.8854,2.887,2.902,2.8913,2.8921,2.8926,2.9264,2.9269,2.9273,0,0,0,0,0,0,2.8408,2.8433,2.8645,2.8549,2.8576,2.8625,2.8682,2.8689,2.8726,2.8781,2.8789,2.8736,2.8837,2.8857,2.8968,2.9025,2.8925,2.8933,2.926,2.9266,2.9271,2.9323,0,0,0,0,0,0,2.8399,2.8431,2.8479,2.855,2.8581,2.8741,2.8686,2.8694,2.8741,2.8737,2.881,2.8819,2.8836,2.8955,2.8977,2.9036,2.894,2.9255,2.9262,2.9269,2.9316,2.9329,2.9341,0,0,0,0,0,2.8389,2.8487,2.8481,2.8507,2.8642,2.8745,2.8762,2.8781,2.8746,2.8794,2.883,2.8816,2.9015,2.8966,2.8991,2.9053,2.9251,2.926,2.9269,2.931,2.9327,2.9341,0,0,0,0,0,0,2.842,2.8497,2.8491,2.8615,2.8674,2.8741,2.8803,2.8798,2.8867,2.886,2.888,2.8896,2.9008,2.9042,2.8985,2.9177,2.9128,2.9142,2.9152,2.9168,2.918,2.9169,2.8948,0,0,0,0,0,2.8442,2.8519,2.8581,2.8685,2.8715,2.8754,2.8799,2.8809,2.887,2.8894,2.8938,2.8997,2.9072,2.9122,2.9195,2.9321,2.9336,2.9376,2.9388,2.9398,2.941,2.9479,2.9498,2.9302,2.9302,2.9302,0,0,2.8486,2.8538,2.8585,2.8693,2.8739,2.8818,2.8775,2.886,2.8919,2.8907,2.9014,2.9048,2.9115,2.9234,2.9289,2.9265,2.9468,2.9409,2.9417,2.9424,2.949,2.9509,2.9525,2.9308,2.9307,2.9306,0,0,2.8609,2.8655,2.8747,2.8795,2.8866,2.8891,2.8913,2.8982,2.9005,2.9113,2.9105,2.9175,2.9305,2.9353,2.9395,2.9536,2.9526,2.9559,2.9624,2.9691,2.9707,2.972,2.977,2.9788,2.957,2.957,2.9571,0,2.8655,2.8775,2.8794,2.8881,2.8929,2.8922,2.9015,2.9059,2.915,2.9183,2.9156,2.9319,2.9364,2.9494,2.9528,2.9562,2.9587,2.955,2.9703,2.9717,2.973,2.9778,2.9797,2.9574,2.9574,2.9573,2.9573,0,2.8829,2.8912,2.8977,2.9066,2.9121,2.921,2.9242,2.9295,2.93,2.9328,2.9438,2.9491,2.9575,2.9606,2.9612,2.9738,2.9721,2.9698,2.9649,2.9752,2.9797,2.9816,2.9579,2.9578,2.9577,2.9576,0,0,2.8974,2.9073,2.9097,2.9137,2.9215,2.928,2.9368,2.9451,2.9496,2.9559,2.9633,2.9744,2.9724,2.9771,2.9781,2.984,2.9948,2.981,2.9812,2.9834,3.009,3.0107,3.0128,2.9942,2.9946,2.9949,3.0084,0,2.9104,2.9262,2.9282,2.9422,2.9499,2.9494,2.9571,2.9627,2.9656,2.9725,2.9756,2.9834,2.9801,2.983,2.9888,2.9923,3.0,2.9913,3.0011,3.0015,2.9995,3.0152,3.0169,3.0295,3.0102,3.0105,3.0108,0,2.9277,2.9346,2.9493,2.9561,2.9594,2.9663,2.9741,2.9807,2.987,2.9887,2.994,2.9943,3.0034,2.9981,3.0107,3.0047,3.0088,3.0112,3.0117,3.0127,3.0067,3.0165,3.0335,3.0354,3.0136,3.0133,3.0131,0,2.9368,2.9498,2.9603,2.9638,2.9719,2.9768,2.9804,2.9864,2.9912,2.998,3.0011,3.0088,3.013,3.0189,3.0212,3.0172,3.0337,3.0286,3.0352,3.0352,3.0387,3.0385,3.0566,3.0414,3.0414,3.0413,3.0413,0,2.9511,2.9602,2.9645,2.971,2.9811,2.9833,2.9932,2.9966,3.0019,3.009,3.009,3.0156,3.0184,3.0254,3.0273,3.0374,3.0392,3.0408,3.0412,3.0408,3.0406,3.0435,3.0427,3.0418,3.0417,3.0416,3.0415,0,2.963,2.9663,2.9778,2.9846,2.9865,2.9937,2.9995,3.0057,3.0085,3.0174,3.0196,3.024,3.0323,3.0353,3.0453,3.0466,3.0583,3.0579,3.0562,3.0563,3.0628,3.0621,3.0834,3.0863,3.0692,3.0693,3.0695,0,2.972,2.9789,2.9865,2.9913,2.9951,3.0028,3.0078,3.0102,3.0153,3.0231,3.0284,3.0366,3.0433,3.0566,3.0606,3.0683,3.0681,3.0751,3.0693,3.0687,3.0682,3.0678,3.0685,3.0761,3.0763,3.0764,3.0766,0,2.9874,2.9887,2.9959,3.0038,3.0097,3.0159,3.022,3.0259,3.0291,3.0349,3.0435,3.0487,3.059,3.0672,3.075,3.0786,3.0782,3.0784,3.0803,3.08,3.0787,3.0795,3.0591,3.0778,3.0777,3.0776,3.0776,3.0775,2.9981,3.0043,3.0106,3.0187,3.0235,3.0291,3.0353,3.039,3.0461,3.0548,3.0557,3.0649,3.071,3.0815,3.0855,3.0926,3.0907,3.0935,3.0943,3.0949,3.0954,3.0776,3.0941,3.094,3.094,3.094,3.094,0,3.0136,3.0177,3.025,3.0335,3.0399,3.0389,3.0456,3.0509,3.059,3.0647,3.0714,3.0812,3.0891,3.0938,3.1017,3.1066,3.1065,3.1086,3.1082,3.1091,3.0967,3.0942,3.1084,3.1084,3.1084,3.1084,3.1084,3.1084,3.0224,3.0328,3.0349,3.0476,3.0516,3.0607,3.0645,3.0697,3.0743,3.0853,3.0919,3.0949,3.1003,3.1086,3.1158,3.117,3.1199,3.1221,3.1231,3.1114,3.1099,3.1085,3.1062,3.1228,3.1228,3.1349,3.135,3.1351]},{"header":{"parameterUnit":"m.s-1","parameterCategory":1,"la1":30.2991,"la2":30.254,"lo1":-89.0895,"lo2":-89.0444,"dy":0.0017,"dx":0.0017,"nx":28,"ny":28,"refTime":"2025-08-14T21:00:00:Z","depth":0,"parameterNumber":3,"parameterNumberName":"V-component_of_WINDS"},"data":[0,0,0,0,0,0,0,0,0,0,0,0,0,0,0,0,0,0,0,0,0,0,0,0,0,0,0,0,0,0,0,0,0,0,0,0,0,0,0,0,0,0,0,0,0,0,0,0,0,0,0,0,0,0,0,0,0,0,-0.4426,-0.4426,0,-0.4419,-0.4418,-0.4418,-0.4427,-0.4427,-0.4427,-0.4428,-0.4417,-0.4417,-0.4416,0,0,0,0,0,0,0,0,0,0,0,0,0,-0.4445,-0.4444,-0.4426,-0.4426,-0.4426,-0.4419,-0.4418,-0.4418,-0.4427,-0.4427,-0.4427,-0.4428,-0.4417,-0.4417,-0.4416,0,0,0,0,0,0,0,0,0,0,0,0,0,-0.4437,-0.4444,-0.4426,-0.4429,-0.4429,-0.4419,-0.4418,-0.4418,-0.4427,-0.4427,-0.4428,-0.4428,-0.4417,-0.4417,-0.4416,-0.4401,0,0,-0.4413,-0.4413,0,0,0,0,0,0,0,0,-0.4437,-0.4436,-0.4429,-0.4429,-0.4429,-0.4424,-0.4421,-0.4412,-0.4426,-0.4427,-0.4428,-0.4428,-0.4419,-0.4418,-0.4415,-0.44,-0.44,-0.4413,-0.4413,-0.4412,-0.4412,0,0,0,0,0,0,0,-0.4438,-0.4436,-0.4423,-0.4428,-0.4429,-0.443,-0.4429,-0.442,-0.442,-0.4427,-0.4428,-0.4427,-0.4419,-0.4416,-0.4415,-0.44,-0.4413,-0.4412,-0.4412,-0.4411,-0.4372,-0.4372,0,0,0,0,0,0,-0.4438,-0.4437,-0.4423,-0.4423,-0.4434,-0.4429,-0.4429,-0.4425,-0.4421,-0.442,-0.4427,-0.4428,-0.4417,-0.4416,-0.4415,-0.4397,-0.4412,-0.4411,-0.4411,-0.4373,-0.4372,-0.4372,0,0,0,0,0,0,-0.4439,-0.4437,-0.4423,-0.443,-0.4428,-0.4429,-0.4424,-0.4425,-0.4422,-0.442,-0.442,-0.4424,-0.4418,-0.4416,-0.4404,-0.4397,-0.4411,-0.441,-0.4373,-0.4373,-0.4372,-0.4361,0,0,0,0,0,0,-0.4439,-0.4437,-0.4432,-0.443,-0.4428,-0.4414,-0.4424,-0.4424,-0.4421,-0.4422,-0.4417,-0.4417,-0.4418,-0.4406,-0.4404,-0.4396,-0.4409,-0.4374,-0.4373,-0.4372,-0.4362,-0.436,-0.4358,0,0,0,0,0,-0.444,-0.4428,-0.4431,-0.443,-0.4421,-0.4413,-0.4412,-0.4414,-0.442,-0.4414,-0.4414,-0.4417,-0.4398,-0.4405,-0.4402,-0.4394,-0.4374,-0.4373,-0.4372,-0.4363,-0.436,-0.4358,0,0,0,0,0,0,-0.4428,-0.4428,-0.4431,-0.4419,-0.4416,-0.4415,-0.4407,-0.4411,-0.4406,-0.4407,-0.4409,-0.4408,-0.4396,-0.4394,-0.4401,-0.4379,-0.4387,-0.4385,-0.4381,-0.4378,-0.4376,-0.4377,-0.4409,0,0,0,0,0,-0.4424,-0.4418,-0.4418,-0.4407,-0.4406,-0.4407,-0.4403,-0.4406,-0.4402,-0.4401,-0.4399,-0.4395,-0.4388,-0.4383,-0.4377,-0.4362,-0.4361,-0.4355,-0.4353,-0.4352,-0.435,-0.4342,-0.4339,-0.4368,-0.4368,-0.4368,0,0,-0.4415,-0.4415,-0.441,-0.4405,-0.4403,-0.4396,-0.4406,-0.4398,-0.4393,-0.4399,-0.4388,-0.4387,-0.4383,-0.437,-0.4364,-0.4368,-0.4342,-0.435,-0.4349,-0.4348,-0.4341,-0.4338,-0.4336,-0.4367,-0.4367,-0.4367,0,0,-0.4396,-0.4395,-0.4386,-0.4384,-0.4382,-0.4383,-0.4381,-0.4379,-0.4379,-0.4368,-0.4373,-0.4367,-0.4355,-0.4352,-0.4349,-0.433,-0.4333,-0.4328,-0.4317,-0.431,-0.4307,-0.4305,-0.4298,-0.4296,-0.4326,-0.4326,-0.4326,0,-0.4385,-0.4376,-0.438,-0.4373,-0.437,-0.4377,-0.4368,-0.4365,-0.436,-0.4358,-0.4363,-0.4349,-0.4346,-0.4333,-0.4329,-0.4326,-0.4323,-0.4328,-0.4308,-0.4306,-0.4304,-0.4297,-0.4294,-0.4326,-0.4326,-0.4326,-0.4326,0,-0.4362,-0.4356,-0.4349,-0.4345,-0.4342,-0.4333,-0.4336,-0.4332,-0.4335,-0.4335,-0.4325,-0.4322,-0.4316,-0.4313,-0.4315,-0.43,-0.4302,-0.4307,-0.4315,-0.43,-0.4294,-0.4291,-0.4325,-0.4325,-0.4325,-0.4325,0,0,-0.4333,-0.4334,-0.4331,-0.433,-0.4328,-0.4323,-0.4315,-0.431,-0.4306,-0.4303,-0.4296,-0.4286,-0.4292,-0.4288,-0.429,-0.4284,-0.4269,-0.4289,-0.4289,-0.4285,-0.4251,-0.4247,-0.4243,-0.4271,-0.4271,-0.4271,-0.4251,0,-0.4313,-0.43,-0.4305,-0.4291,-0.4285,-0.4293,-0.4286,-0.4284,-0.4284,-0.4279,-0.4279,-0.4273,-0.428,-0.4278,-0.4272,-0.4272,-0.4262,-0.4273,-0.4264,-0.4263,-0.4263,-0.424,-0.4235,-0.4217,-0.4249,-0.4248,-0.4248,0,-0.4288,-0.4285,-0.4271,-0.4272,-0.4269,-0.4263,-0.4259,-0.4254,-0.4252,-0.4253,-0.425,-0.4254,-0.4246,-0.4255,-0.4243,-0.4251,-0.4247,-0.4247,-0.4246,-0.4244,-0.4254,-0.4237,-0.4211,-0.4208,-0.4244,-0.4245,-0.4245,0,-0.4267,-0.426,-0.4251,-0.425,-0.425,-0.4246,-0.4245,-0.4244,-0.4241,-0.4238,-0.4236,-0.4231,-0.4228,-0.4224,-0.4226,-0.4233,-0.4214,-0.4223,-0.4213,-0.4213,-0.4208,-0.4208,-0.418,-0.4207,-0.4208,-0.4208,-0.4208,0,-0.4244,-0.4235,-0.4242,-0.4236,-0.4226,-0.4232,-0.4221,-0.4222,-0.4221,-0.4215,-0.4222,-0.4216,-0.422,-0.4214,-0.4216,-0.4206,-0.4204,-0.4204,-0.4205,-0.4203,-0.4203,-0.42,-0.4201,-0.4207,-0.4207,-0.4207,-0.4207,0,-0.4219,-0.4223,-0.4213,-0.4215,-0.4216,-0.4208,-0.4209,-0.4204,-0.4206,-0.4198,-0.4197,-0.4199,-0.4193,-0.4196,-0.4189,-0.419,-0.4177,-0.4179,-0.4178,-0.4178,-0.4168,-0.4168,-0.4136,-0.4132,-0.4163,-0.4163,-0.4163,0,-0.4203,-0.4196,-0.4198,-0.4195,-0.4195,-0.419,-0.4187,-0.4193,-0.4189,-0.4188,-0.4182,-0.4177,-0.4173,-0.4163,-0.4163,-0.4158,-0.416,-0.4149,-0.4159,-0.4158,-0.4159,-0.4159,-0.4158,-0.4147,-0.4146,-0.4146,-0.4146,0,-0.4174,-0.4177,-0.4173,-0.4171,-0.4168,-0.4166,-0.4164,-0.4161,-0.4167,-0.4163,-0.4157,-0.4154,-0.4148,-0.4143,-0.4139,-0.4138,-0.4142,-0.4143,-0.4141,-0.4138,-0.4137,-0.4137,-0.4171,-0.4143,-0.4144,-0.4144,-0.4144,-0.4144,-0.4152,-0.4147,-0.4147,-0.4143,-0.4143,-0.4142,-0.4137,-0.4139,-0.4135,-0.4131,-0.4135,-0.4128,-0.4127,-0.4122,-0.4121,-0.4115,-0.4119,-0.4116,-0.4115,-0.4113,-0.4112,-0.4139,-0.4115,-0.4115,-0.4115,-0.4115,-0.4115,0,-0.4123,-0.4124,-0.4121,-0.4119,-0.4116,-0.4123,-0.4121,-0.4118,-0.4112,-0.4112,-0.4108,-0.4102,-0.4097,-0.4098,-0.4094,-0.4089,-0.4091,-0.4088,-0.4087,-0.4087,-0.4109,-0.4111,-0.4086,-0.4086,-0.4086,-0.4086,-0.4086,-0.4086,-0.4107,-0.4098,-0.4102,-0.4093,-0.4094,-0.4088,-0.4087,-0.4086,-0.4086,-0.4079,-0.4075,-0.4077,-0.4077,-0.4073,-0.4068,-0.4069,-0.4066,-0.4062,-0.4063,-0.4083,-0.4085,-0.4088,-0.409,-0.4062,-0.4062,-0.4042,-0.4042,-0.4041]}]]